Preview of NWS' New Version of Forecast
This preview is not operational and should not be used for support decisions.

Regional Weather Roundup (RWR)

Issued by Gray - Portland, ME (GYX)

                            
000
ASUS41 KGYX 210110
RWRGYX
WEATHER ROUNDUP FOR MAINE AND NEW HAMPSHIRE
NATIONAL WEATHER SERVICE GRAY ME
900 PM EDT SAT APR 20 2019

MEZ002-005-006-010-012-015-018-020-021-024-026-027-029-210200-
MAINE
  
CITY           SKY/WX    TMP DP  RH WIND       PRES   REMARKS
PORTLAND       LGT RAIN  54  52  93 S8        29.98R FOG              
SANFORD        LGT RAIN  62  61  96 S10G16    29.97R                  
BAR HARBOR     CLOUDY    53  53 100 S15G21    30.06F FOG              
WISCASSET      CLOUDY    52  51  97 VRB6      30.02R FOG              
ROCKLAND       CLOUDY    50  50 100 S6        30.04R FOG              
FRYEBURG       MOCLDY    60  59  96 SE7       29.96R                  
LEWISTONAUBURN LGT RAIN  56  56 100 SE6       29.99R FOG              
AUGUSTA        FOG       56  56 100 S7G17     30.00R VSB 1/4          
WATERVILLE     LGT RAIN  47  47 100 N7        29.98R FOG              
BANGOR         FOG       54  54 100 S12       30.01S VSB 1/2          
GREENVILLE       N/A     43  43 100 SE7       29.98R                  
MILLINOCKET    CLOUDY    42  39  89 N6        30.06F FOG              
HOULTON        LGT RAIN  40  38  93 VRB5      30.07F                  
PRESQUE ISLE   LGT RAIN  40  39  97 E7        30.08F FOG              
FRENCHVILLE    CLOUDY    40  36  86 SE8       30.07R                  
CARIBOU        LGT RAIN  40  37  89 SE9       30.08S                  
$$

NHZ002-005-008-009-011-012-014-210200-
NEW HAMPSHIRE
  
CITY           SKY/WX    TMP DP  RH WIND       PRES   REMARKS
PORTSMOUTH     LGT RAIN  61  61  98 S8        29.93S                  
ROCHESTER      LGT RAIN  63  63 100 SE6       29.94S                  
NASHUA         CLOUDY    64  64 100 S5G20     29.91S                  
MANCHESTER     CLOUDY    65  62  90 S12G21    29.90S                  
CONCORD        CLOUDY    65  59  81 VRB7G23   29.88F                  
LACONIA        MOCLDY    66  60  81 S10G18    29.90F                  
PLYMOUTH       CLOUDY    63  59  87 CALM      29.89R                  
BERLIN         CLOUDY    63  60  90 SE14      29.90R                  
WHITEFIELD     MOCLDY    67  56  67 S12       29.86S                  
JAFFREY        LGT RAIN  64  60  87 S10G16    29.91R                  
KEENE          LGT RAIN  66  61  84 S10       29.88R                  
LEBANON        CLOUDY    69  58  67 S10G20    29.85R                  
MT WASHINGTON  FOG       46  46 100 S40G66      N/A  VSB 1/16         
$$

VTZ005-007-008-210200-
VERMONT
  
CITY           SKY/WX    TMP DP  RH WIND       PRES   REMARKS
ST JOHNSBURY     N/A     66  59  78 MISG      29.81F                  
MONTPELIER     CLOUDY    63  58  83 SE12      29.85F                  
BURLINGTON     FOG       45  44  97 CALM      29.78S VSB 1/8          
$$

MAZ007-012-024-CTZ003-RIZ002-NYZ038-NYZ072-210200-
SOUTHERN NEW ENGLAND AND NY
  
CITY           SKY/WX    TMP DP  RH WIND       PRES   REMARKS
BOSTON         CLOUDY    63  60  90 SE14      29.94F                  
WORCESTER      CLOUDY    62  61  96 S21G28    29.92R                  
NANTUCKET      LGT RAIN  55  54  96 S20G29    30.04R FOG              
PROVIDENCE     DRIZZLE   56  56 100 S16       29.95S FOG              
HARTFORD       MOCLDY    63  58  83 S10       29.88R                  
ALBANY         MOCLDY    66  52  60 S15G31    29.80R                  
NEW YORK CITY  MOCLDY    54  48  80 S10       29.84R                  
$$

ANZ081-ANZ082-ANZ150-NHZ014-MEZ023>029-210200-
COASTAL MARINE OBSERVATIONS
  
STATION/POSITION TIME  TEMP    WIND        PRES    WAVE
                       AIR SEA DIR/SP/G            HT/PER
                 (UTC) (F)     (DEG/KT/KT) (MB)    (FT/S)
ISLE OF SHOALS   0000   53     170/ 25/ 26 1013.5R
JEFFREYS LEDGE   0038      42                N/A     7/ 6
CASHES LEDGE BUO 0050   47 42              1016.6R   8/ 6
$$

.............KEY..............
   WCI - WIND CHILL
   TC  - TEMPERATURE IN CELSIUS
   VSB - VISIBILITY IN MILES
   HX  - HEAT INDEX
   FAIR- INDICATES FEW OR NO CLOUDS BELOW 12,000 FT, WITH NO 
         SIGNIFICANT WEATHER AND/OR OBSTRUCTIONS TO VISIBILITY.